Weather History for KHYR - November, 2013

Change the Weather History Date:

Tuesday, November 26, 2013

  Actual Average Record
Temperature  
Mean Temperature 17 °F -  
Max Temperature 24 °F 46 °F 51 °F (1998)
Min Temperature 10 °F 22 °F -6 °F (1996)
Degree Days  
Heating Degree Days 48    
Moisture  
Dew Point 5 °F    
Average Humidity 63    
Maximum Humidity 85    
Minimum Humidity 43    
Precipitation  
Precipitation 0.00 in - - ()
Sea Level Pressure  
Sea Level Pressure 30.18 in    
Wind  
Wind Speed 7 mph (NW)    
Max Wind Speed 12 mph    
Max Gust Speed 22 mph    
Visibility 7 miles    
Events Snow    
Averages and records for this station are not official NWS values.
T = Trace of Precipitation, MM = Missing Value Source: NWS Daily Summary

Daily Weather History Graph

Daily Weather History Graph

Search for Another Location

Airport or City:

Trip Planner

Search our weather history database for the weather conditions in past years. The results will help you decide how hot, cold, wet, or windy it might be!

Date:

Astronomy

Nov. 26, 2013 Rise Set
Actual Time 7:21 AM CST 4:24 PM CST
Civil Twilight 6:48 AM CST 4:58 PM CST
Nautical Twilight 6:10 AM CST 5:35 PM CST
Astronomical Twilight 5:35 AM CST 6:10 PM CST
Moon 12:04 AM CST (11/26) 12:51 PM CST (11/26)
Length of Visible Light 10h 10m
Length of Day
9h 03m
Last Quarter, 41% of the Moon is Illuminated
Nov 26
Last Quarter
Dec 2
New
Dec 9
First Quarter
Dec 17
Full
Dec 25
Last Quarter

Hourly Weather History & Observations

Time (CST) Temp. Windchill Dew Point Humidity Pressure Visibility Wind Dir Wind Speed Gust Speed Precip Events Conditions
12:53 AM 24.1 °F 13.1 °F 10.9 °F 57% 30.06 in 9.0 mi WNW 11.5 mph 21.9 mph 0.00 in Snow Light Snow
1:53 AM 23.0 °F 13.9 °F 8.1 °F 53% 30.08 in 10.0 mi WNW 8.1 mph - 0.00 in   Overcast
2:53 AM 23.0 °F 17.0 °F 6.1 °F 48% 30.07 in 10.0 mi Variable 4.6 mph - N/A   Overcast
3:53 AM 23.0 °F 18.4 °F 7.0 °F 50% 30.05 in 10.0 mi Variable 3.5 mph - N/A   Overcast
4:53 AM 23.0 °F 17.0 °F 9.0 °F 55% 30.05 in 10.0 mi Variable 4.6 mph - N/A   Overcast
5:53 AM 21.0 °F 14.6 °F 9.0 °F 60% 30.06 in 10.0 mi Variable 4.6 mph - N/A   Overcast
6:36 AM 19.4 °F 10.4 °F 12.2 °F 74% 30.02 in 1.8 mi Variable 6.9 mph 17.3 mph 0.00 in Snow Light Snow
6:47 AM 19.4 °F 7.2 °F 10.4 °F 68% 30.02 in 3.0 mi NW 11.5 mph 19.6 mph 0.00 in Snow Light Snow
6:53 AM 19.0 °F 7.5 °F 8.1 °F 62% 30.08 in 9.0 mi WNW 10.4 mph 20.7 mph 0.00 in   Overcast
7:02 AM 19.4 °F 8.6 °F 8.6 °F 63% 30.03 in 10.0 mi NW 9.2 mph 20.7 mph N/A   Overcast
7:53 AM 16.0 °F 4.4 °F 6.1 °F 65% 30.13 in 7.0 mi NW 9.2 mph 18.4 mph 0.00 in   Overcast
8:04 AM 15.8 °F 3.4 °F 8.6 °F 73% 30.08 in 1.8 mi NW 10.4 mph 19.6 mph 0.00 in Snow Light Snow
8:10 AM 15.8 °F 5.1 °F 8.6 °F 73% 30.08 in 1.0 mi NW 8.1 mph 19.6 mph 0.00 in Snow Light Snow
8:19 AM 14.0 °F 2.9 °F 8.6 °F 79% 30.09 in 0.8 mi NW 8.1 mph - 0.00 in Snow Light Snow
8:26 AM 14.0 °F 2.9 °F 6.8 °F 73% 30.09 in 1.2 mi NW 8.1 mph 19.6 mph 0.00 in Snow Light Snow
8:30 AM 14.0 °F 6.5 °F 5.0 °F 67% 30.10 in 3.0 mi Variable 4.6 mph 16.1 mph 0.00 in Snow Light Snow
8:40 AM 12.2 °F 6.1 °F 3.2 °F 67% 30.10 in 9.0 mi Variable 3.5 mph - 0.00 in   Mostly Cloudy
8:53 AM 14.0 °F 6.5 °F 1.0 °F 56% 30.17 in 10.0 mi Variable 4.6 mph - 0.00 in   Scattered Clouds
9:53 AM 15.1 °F 6.4 °F 1.0 °F 54% 30.20 in 10.0 mi Variable 5.8 mph - N/A   Overcast
10:33 AM 14.0 °F 5.1 °F 3.2 °F 62% 30.14 in 2.5 mi Variable 5.8 mph - 0.00 in Snow Light Snow
10:41 AM 14.0 °F 2.9 °F 5.0 °F 67% 30.14 in 3.0 mi NW 8.1 mph - 0.00 in Snow Light Snow
10:53 AM 17.1 °F 6.6 °F 1.9 °F 52% 30.20 in 9.0 mi NW 8.1 mph - 0.00 in   Mostly Cloudy
11:53 AM 17.1 °F 8.7 °F -0.9 °F 45% 30.21 in 10.0 mi Variable 5.8 mph 19.6 mph 0.00 in   Mostly Cloudy
12:53 PM 16.0 °F 5.3 °F 1.0 °F 52% 30.21 in 10.0 mi WNW 8.1 mph - 0.00 in   Overcast
1:53 PM 17.1 °F 8.7 °F -2.0 °F 43% 30.22 in 10.0 mi Variable 5.8 mph 19.6 mph N/A   Scattered Clouds
2:53 PM 16.0 °F 7.4 °F -0.9 °F 47% 30.24 in 10.0 mi Variable 5.8 mph - N/A   Mostly Cloudy
3:53 PM 14.0 °F 6.5 °F -2.0 °F 49% 30.27 in 10.0 mi Variable 4.6 mph - N/A   Partly Cloudy
4:53 PM 12.9 °F 6.9 °F -0.9 °F 54% 30.30 in 10.0 mi NW 3.5 mph - N/A   Mostly Cloudy
5:53 PM 12.0 °F - -0.0 °F 59% 30.32 in 10.0 mi Calm Calm - N/A   Partly Cloudy
6:53 PM 12.0 °F 5.9 °F -0.0 °F 59% 30.33 in 10.0 mi Variable 3.5 mph - N/A   Overcast
7:23 PM 12.2 °F 6.1 °F -0.4 °F 57% 30.25 in 10.0 mi Variable 3.5 mph - N/A   Overcast
7:53 PM 10.9 °F 4.7 °F 1.0 °F 64% 30.34 in 10.0 mi Variable 3.5 mph - N/A   Mostly Cloudy
8:23 PM 10.4 °F 2.2 °F 1.4 °F 67% 30.27 in 10.0 mi Variable 4.6 mph - N/A   Overcast
8:53 PM 10.9 °F 4.7 °F 3.0 °F 70% 30.35 in 10.0 mi Variable 3.5 mph - N/A   Overcast
9:53 PM 10.9 °F 4.7 °F 6.1 °F 81% 30.35 in 6.0 mi West 3.5 mph - 0.00 in Snow Light Snow
10:53 PM 10.9 °F - 7.0 °F 84% 30.35 in 4.0 mi Calm Calm - 0.00 in Snow Light Snow
11:16 PM 10.4 °F - 6.8 °F 85% 30.28 in 4.0 mi Calm Calm - 0.00 in Snow Light Snow
11:50 PM 12.2 °F - 8.6 °F 85% 30.28 in 5.0 mi Calm Calm - 0.00 in Snow Light Snow
11:53 PM 12.0 °F - 8.1 °F 84% 30.36 in 5.0 mi Calm Calm - 0.00 in Snow Light Snow